Location: Unspecified
(0.0000°N, 0.0000°E)
Time: 08:59:01
(UTC+00:00)

ISS - Pass Details

Date: 24 December 2017
Orbit: 402 x 407 km, 51.6° (Epoch: 21 May)

Event Time Altitude Azimuth Distance (km) Brightness Sun altitude
Rises 17:49:03 0° 291° (WNW) 2,334 0.8 2.5°
Reaches altitude 10° 17:52:11 10° 259° (WSW) 1,471 1.0 1.8°
Maximum altitude 17:53:33 12° 234° (SW) 1,352 0.7 1.4°
Drops below altitude 10° 17:54:55 10° 209° (SSW) 1,470 0.0 1.1°
Sets 17:58:03 0° 177° (S) 2,328 0.3 0.4°
